Regional Weather Roundup
Issued by NWS

Home | Current Version | Previous Version | Graphics & Text | Print | Product List | Glossary On
Versions: 1 2 3 4 5 6 7 8 9 10 11 12 13 14 15 16 17 18 19 20 21 22 23 24 25 26 27 28 29 30 31 32 33 34 35 36 37 38 39 40 41 42 43 44 45 46 47 48 49 50
000
ASUS43 KMKX 021500
RWRWI

WISCONSIN REGIONAL WEATHER ROUNDUP
NATIONAL WEATHER SERVICE MILWAUKEE/SULLIVAN WI
1000 AM CDT SUN AUG 02 2015

NOTE: "FAIR" INDICATES FEW OR NO CLOUDS BELOW 12,000 FEET WITH NO
SIGNIFICANT WEATHER AND/OR OBSTRUCTIONS TO VISIBILITY.

WIZ001-002-006>008-014>016-023>028-021600-
NORTHWEST WISCONSIN

CITY           SKY/WX    TMP DP  RH WIND       PRES   REMARKS
SUPERIOR ARPT  CLOUDY    69  62  78 CALM      29.60F
ASHLAND        CLOUDY    74  65  73 S8        29.60F
HAYWARD        PTSUNNY   68  65  90 SW5       29.64F
SIREN          MOSUNNY   71  63  75 W3        29.65R
CUMBERLAND     PTSUNNY   72  64  78 CALM      29.64F
RICE LAKE      MOSUNNY   74  65  74 SE3       29.64F
CHETEK         MOSUNNY   76  67  76 SW3       29.64F
LADYSMITH      PTSUNNY   73  66  79 W5        29.68S
EAU CLAIRE     NOT AVBL
MENOMONIE      SUNNY     78  66  68 SW10      29.64F
NEW RICHMOND   SUNNY     76  64  67 W12       29.64F
OSCEOLA        MOSUNNY   75  66  74 SW7       29.67R
$$

WIZ003>005-009-010-017-018-021600-
NORTH CENTRAL WISCONSIN

CITY           SKY/WX    TMP DP  RH WIND       PRES   REMARKS
MANITOWISH WTR CLOUDY    68  59  74 CALM      29.67S THUNDER
ARBOR VITAE    PTSUNNY   72  67  83 S3        29.67S
WOODRUFF       PTSUNNY   72  67  83 S3        29.67S
RHINELANDER    CLOUDY    70  62  76 VRB6      29.68S
EAGLE RIVER    CLOUDY    68  62  81 CALM      29.67R
LAND O LAKES   CLOUDY    71  59  66 CALM      29.67S
PHILLIPS       CLOUDY    64  64  99 N3        29.68S
TOMAHAWK       CLOUDY    66  62  87 CALM      29.69F
MEDFORD        PTSUNNY   72  66  81 SW12      29.68S
MERRILL        NOT AVBL
$$

WIZ029-030-035-036-043>047-021600-
CENTRAL WISCONSIN

CITY           SKY/WX    TMP DP  RH WIND       PRES   REMARKS
WAUSAU         CLOUDY    73  68  84 SW10      29.66F
MOSINEE        NOT AVBL
MARSHFIELD     MOSUNNY   78  65  63 SW15      29.68F HX  80
STEVENS POINT  PTSUNNY   74  66  76 SW8       29.71S
WAUPACA        CLOUDY    78  67  69 SW8       29.71F HX  80
WAUTOMA        NOT AVBL
WISC RAPIDS    MOSUNNY   81  65  58 W15G23    29.70F HX  83
CAMP DOUGLAS   NOT AVBL
$$

WIZ011>013-019>022-031-037>040-048>050-021600-
NORTHEAST WISCONSIN

CITY           SKY/WX    TMP DP  RH WIND       PRES   REMARKS
ANTIGO         CLOUDY    68  67  97 SW10      29.68F
SHAWANO        RAIN      73  68  85 SW5       29.66F
OCONTO         CLOUDY    76  69  80 SW7       29.65F
STURGEON BAY   PTSUNNY   73  66  78 SW8       29.70F THUNDER
GREEN BAY      CLOUDY    75  68  78 S3        29.67F
MANITOWOC      NOT AVBL
APPLETON       PTSUNNY   75  66  73 SW12      29.72S
CLINTONVILLE   CLOUDY    72  68  88 SW7       29.67F
OSHKOSH        PTSUNNY   78  68  71 W7G16     29.72R HX  80
$$

WIZ032>034-041-042-053>061-021600-
SOUTHWEST WISCONSIN

CITY           SKY/WX    TMP DP  RH WIND       PRES   REMARKS
LA CROSSE      SUNNY     82  69  64 SW12      29.69F HX  85
SPARTA         MOSUNNY   80  66  61 W12       29.72F HX  82
VIROQUA        SUNNY     79  68  69 W14G20    29.76F HX  81
BOSCOBEL       SUNNY     83  67  58 SW13G20   29.75S HX  85
PRAIRIE DU CHI MOSUNNY   80  64  58 SW9       29.76S HX  81
PLATTEVILLE    MOSUNNY   78  69  73 SW18      29.78F HX  80
$$

WIZ056-057-062-063-064-067-068-021600-
SOUTH CENTRAL WISCONSIN

CITY           SKY/WX    TMP DP  RH WIND       PRES   REMARKS
REEDSBURG      MOSUNNY   80  69  68 SW17G24   29.74R HX  83
BARABOO/DELLS  MOSUNNY   80  66  63 SW17G23   29.74R HX  82
LONE ROCK      NOT AVBL
MINERAL POINT  MOSUNNY   79  68  69 SW12      29.79F HX  81
MADISON        PTSUNNY   81  67  62 SW10G21   29.73F HX  83
MIDDLETON      MOSUNNY   82  65  57 SW18G25   29.75F HX  83
WATERTOWN      MOSUNNY   78  72  82 SW12      29.75F HX  80
MONROE         PTSUNNY   77  68  73 SW17      29.80F
JANESVILLE     PTSUNNY   82  66  57 SW17G23   29.78F HX  85
$$

WIZ051-052-058>065-066-070>072-021600-
SOUTHEAST WISCONSIN

CITY           SKY/WX    TMP DP  RH WIND       PRES   REMARKS
MILWAUKEE      PTSUNNY   83  68  60 SW23G29   29.75F HX  86
WAUKESHA       MOSUNNY   81  66  61 SW12G23   29.76F HX  83
MILWAUKEE/TIMM SUNNY     82  64  54 SW17G31   29.75F HX  84
RACINE         SUNNY     84  68  58 SW13G28   29.78F HX  87
BURLINGTON     SUNNY     80  68  66 SW10      29.79F HX  82
KENOSHA        SUNNY     83  70  64 SW15      29.78F HX  87
FOND DU LAC    PTSUNNY   79  70  74 W13       29.73R HX  82
SHEBOYGAN      LGT RAIN  78  69  73 W15       29.72S HX  80
WEST BEND      PTSUNNY   79  68  69 SW15G24   29.73F HX  81
JUNEAU         PTSUNNY   76  70  81 SW12G20   29.75F
$$

LSZ147-162-021600-
LAKE SUPERIOR

STATION/POSITION TIME  TEMP    WIND        PRES    WAVE
                       AIR SEA DIR/SP/G            HT/PER
                 (UTC) (F)     (DEG/KT/KT) (MB)    (FT/S)
W MID LAKE BUOY  1350   58 54  240/  6/  8 1002.7S   1/ 3
DEVILS ISLAND    1400   68     130/  2/  4 1002.3F
PORT WING        1400   72     180/  3/  5 1002.4
SAXON HARBOR     1420   67                 1002.7F
$$

LMZ867-665-643>646-021600-
LAKE MICHIGAN

STATION/POSITION TIME  TEMP    WIND        PRES    WAVE
                       AIR SEA DIR/SP/G            HT/PER
                 (UTC) (F)     (DEG/KT/KT) (MB)    (FT/S)
CHAMBERS ISLAND  1400   71     210/  6/ 11 1005.4R
S GREEN BAY BUOY 1430   69 64  250/  8/ 10 1007.0R
N MID LAKE BUOY  1350   69 68  250/ 12/ 17 1004.4R   2/ 4
NORTHPORT PIER   1400   73     310/  9/ 18 1005.1R
SISTER BAY       1414   73     260/ 16/ 19   N/A
ALGOMA LAKESHORE 1442          260/ 10/ 18   N/A
KEWAUNEE LAKESHO 1400   77     260/ 13/ 18 1004.8S
SHEBOYGAN LAKESH 1400   78     240/ 20/ 26 1006.2F
PORT WASHINGTON  1400   81     260/ 13/ 24 1007.1
ATWATER BUOY     1400   75 58  230/ 12/ 16 1008.9F
MILWAUKEE LAKESH 1400   78     250/ 15/ 21   N/A
KENOSHA   LAKESH 1400   80     240/ 11/ 21 1009.1S
$$

TC  - TEMPERATURE IN CELSIUS
VSB - VISIBILITY IN STATUTE MILES
WCI - WIND CHILL INDEX
HX  - HEAT INDEX



USA.gov is the U.S. government's official web portal to all federal, state and local government web resources and services.